| time (UTC) | temp C | wind direction | speed KPH | gust KPH | rain 1hr cm | rain 24hr cm | rain mn cm | humidity % | barometer mb |
| 20260505022803 | 8 | 0 | 14.5 | 24.1 | 0.00 | 0.00 | 0.00 | 42 | 1004.6 |
| 20260505022304 | 9 | 0 | 14.5 | 32.2 | 0.00 | 0.00 | 0.00 | 42 | 1004.5 |
| 20260505021803 | 9 | 0 | 19.3 | 35.4 | 0.00 | 0.00 | 0.00 | 42 | 1004.4 |
| 20260505021303 | 9 | 0 | 17.7 | 32.2 | 0.00 | 0.00 | 0.00 | 42 | 1004.2 |
| 20260505020303 | 9 | 0 | 4.8 | 14.5 | 0.00 | 0.00 | 0.00 | 42 | 1003.9 |
| 20260505015803 | 9 | 0 | 9.7 | 24.1 | 0.00 | 0.00 | 0.00 | 41 | 1003.8 |
| 20260505015304 | 10 | 0 | 9.7 | 32.2 | 0.00 | 0.00 | 0.00 | 41 | 1003.7 |
| 20260505014803 | 10 | 0 | 11.3 | 24.1 | 0.00 | 0.00 | 0.00 | 41 | 1003.6 |
| 20260505014303 | 10 | 0 | 11.3 | 22.5 | 0.00 | 0.00 | 0.00 | 41 | 1003.5 |
| 20260505013804 | 10 | 0 | 9.7 | 19.3 | 0.00 | 0.00 | 0.00 | 41 | 1003.4 |
| 20260505013303 | 10 | 0 | 11.3 | 27.4 | 0.00 | 0.00 | 0.00 | 41 | 1003.4 |
| 20260505012803 | 10 | 0 | 9.7 | 32.2 | 0.00 | 0.00 | 0.00 | 41 | 1003.2 |
| 20260505012304 | 10 | 0 | 12.9 | 27.4 | 0.00 | 0.00 | 0.00 | 41 | 1003.2 |
| 20260505011803 | 10 | 0 | 11.3 | 25.7 | 0.00 | 0.00 | 0.00 | 41 | 1003.1 |
| 20260505010804 | 10 | 0 | 11.3 | 29.0 | 0.00 | 0.00 | 0.00 | 41 | 1002.9 |
| 20260505010304 | 11 | 0 | 14.5 | 35.4 | 0.00 | 0.00 | 0.00 | 41 | 1002.8 |
| 20260505005804 | 11 | 0 | 8.0 | 32.2 | 0.00 | 0.00 | 0.00 | 39 | 1002.6 |
| 20260505005304 | 11 | 0 | 16.1 | 29.0 | 0.00 | 0.00 | 0.00 | 39 | 1002.6 |
| 20260505004804 | 11 | 0 | 12.9 | 24.1 | 0.00 | 0.00 | 0.00 | 39 | 1002.4 |
| 20260505004304 | 11 | 0 | 14.5 | 29.0 | 0.00 | 0.00 | 0.00 | 39 | 1002.4 |
| 20260505003804 | 11 | 0 | 16.1 | 32.2 | 0.00 | 0.00 | 0.00 | 39 | 1002.4 |
| 20260505002804 | 11 | 0 | 16.1 | 27.4 | 0.00 | 0.00 | 0.00 | 39 | 1002.2 |
| 20260505002304 | 11 | 0 | 16.1 | 40.2 | 0.00 | 0.00 | 0.00 | 39 | 1002.2 |
| 20260505001803 | 12 | 0 | 12.9 | 32.2 | 0.00 | 0.00 | 0.00 | 39 | 1002.1 |
| 20260505001304 | 12 | 0 | 11.3 | 27.4 | 0.00 | 0.00 | 0.00 | 39 | 1002.0 |
| 20260505000804 | 12 | 0 | 17.7 | 37.0 | 0.00 | 0.00 | 0.00 | 39 | 1001.9 |
| 20260505000303 | 12 | 0 | 14.5 | 32.2 | 0.00 | 0.00 | 0.00 | 39 | 1001.8 |
| 20260504235804 | 12 | 0 | 14.5 | 29.0 | 0.00 | 0.00 | 0.00 | 36 | 1001.7 |
| 20260504235304 | 12 | 0 | 11.3 | 32.2 | 0.00 | 0.00 | 0.00 | 36 | 1001.7 |
| 20260504234804 | 12 | 0 | 19.3 | 33.8 | 0.00 | 0.00 | 0.00 | 36 | 1001.7 |
| 20260504234304 | 13 | 0 | 14.5 | 24.1 | 0.00 | 0.00 | 0.00 | 36 | 1001.6 |
| 20260504233804 | 13 | 0 | 9.7 | 29.0 | 0.00 | 0.00 | 0.00 | 36 | 1001.6 |
| 20260504233304 | 13 | 0 | 17.7 | 32.2 | 0.00 | 0.00 | 0.00 | 36 | 1001.4 |
| 20260504232804 | 13 | 0 | 22.5 | 37.0 | 0.00 | 0.00 | 0.00 | 36 | 1001.5 |
| 20260504232304 | 13 | 326 | 9.7 | 35.4 | 0.00 | 0.00 | 0.00 | 36 | 1001.4 |
| 20260504231304 | 13 | 314 | 16.1 | 27.4 | 0.00 | 0.00 | 0.00 | 36 | 1001.2 |
| 20260504230803 | 14 | 308 | 19.3 | 33.8 | 0.00 | 0.00 | 0.00 | 36 | 1001.1 |
| 20260504230304 | 14 | 319 | 20.9 | 33.8 | 0.00 | 0.00 | 0.00 | 36 | 1000.9 |
| 20260504225804 | 15 | 318 | 17.7 | 29.0 | 0.00 | 0.00 | 0.00 | 33 | 1000.8 |
| 20260504225304 | 15 | 355 | 11.3 | 22.5 | 0.00 | 0.00 | 0.00 | 33 | 1000.7 |
| 20260504224804 | 14 | 0 | 17.7 | 38.6 | 0.00 | 0.00 | 0.00 | 33 | 1000.7 |
| 20260504224304 | 14 | 0 | 20.9 | 40.2 | 0.00 | 0.00 | 0.00 | 33 | 1000.8 |
| 20260504223804 | 15 | 312 | 19.3 | 38.6 | 0.00 | 0.00 | 0.00 | 33 | 1000.5 |
| 20260504223304 | 15 | 296 | 19.3 | 33.8 | 0.00 | 0.00 | 0.00 | 33 | 1000.4 |
| 20260504222804 | 15 | 309 | 12.9 | 29.0 | 0.00 | 0.00 | 0.00 | 33 | 1000.4 |
| 20260504222305 | 15 | 0 | 19.3 | 35.4 | 0.00 | 0.00 | 0.00 | 33 | 1000.3 |
| 20260504221804 | 15 | 301 | 16.1 | 32.2 | 0.00 | 0.00 | 0.00 | 33 | 1000.1 |
| 20260504221304 | 15 | 0 | 17.7 | 29.0 | 0.00 | 0.00 | 0.00 | 33 | 1000.0 |
| 20260504220804 | 15 | 0 | 14.5 | 32.2 | 0.00 | 0.00 | 0.00 | 33 | 999.9 |
| 20260504220303 | 15 | 324 | 16.1 | 32.2 | 0.00 | 0.00 | 0.00 | 33 | 999.8 |
| 20260504215803 | 16 | 303 | 19.3 | 37.0 | 0.00 | 0.00 | 0.00 | 31 | 999.8 |
| 20260504215305 | 16 | 314 | 14.5 | 37.0 | 0.00 | 0.00 | 0.00 | 31 | 999.7 |
| 20260504214803 | 16 | 286 | 16.1 | 33.8 | 0.00 | 0.00 | 0.00 | 31 | 999.6 |
| 20260504213803 | 16 | 0 | 16.1 | 41.8 | 0.00 | 0.00 | 0.00 | 31 | 999.4 |
| 20260504212804 | 16 | 0 | 20.9 | 32.2 | 0.00 | 0.00 | 0.00 | 31 | 999.7 |
| 20260504211304 | 16 | 0 | 14.5 | 24.1 | 0.00 | 0.00 | 0.00 | 31 | 999.4 |
| 20260504210304 | 15 | 291 | 12.9 | 37.0 | 0.00 | 0.00 | 0.00 | 31 | 999.5 |
| 20260504205804 | 16 | 0 | 14.5 | 24.1 | 0.00 | 0.00 | 0.00 | 28 | 999.5 |
| 20260504205304 | 16 | 309 | 8.0 | 27.4 | 0.00 | 0.00 | 0.00 | 28 | 999.5 |
| 20260504204804 | 16 | 315 | 9.7 | 29.0 | 0.00 | 0.00 | 0.00 | 28 | 999.5 |
| 20260504204304 | 16 | 0 | 16.1 | 32.2 | 0.00 | 0.00 | 0.00 | 28 | 999.5 |
| 20260504203304 | 16 | 357 | 16.1 | 32.2 | 0.00 | 0.00 | 0.00 | 28 | 999.4 |
| 20260504202803 | 16 | 323 | 14.5 | 32.2 | 0.00 | 0.00 | 0.00 | 28 | 999.5 |
| 20260504202304 | 16 | 321 | 20.9 | 40.2 | 0.00 | 0.00 | 0.00 | 28 | 999.5 |
| 20260504201803 | 16 | 324 | 16.1 | 41.8 | 0.00 | 0.00 | 0.00 | 28 | 999.2 |
| 20260504201303 | 16 | 304 | 16.1 | 29.0 | 0.00 | 0.00 | 0.00 | 28 | 999.2 |
| 20260504200804 | 16 | 310 | 20.9 | 41.8 | 0.00 | 0.00 | 0.00 | 28 | 999.1 |
| 20260504194802 | 17 | 325 | 16.1 | 33.8 | 0.00 | 0.00 | 0.00 | 32 | 998.9 |
| 20260504194303 | 17 | 0 | 17.7 | 32.2 | 0.00 | 0.00 | 0.00 | 32 | 998.9 |
| 20260504193803 | 17 | 294 | 17.7 | 37.0 | 0.00 | 0.00 | 0.00 | 32 | 998.7 |
| 20260504193303 | 18 | 292 | 14.5 | 38.6 | 0.00 | 0.00 | 0.00 | 32 | 998.6 |
| 20260504192802 | 18 | 302 | 16.1 | 35.4 | 0.00 | 0.00 | 0.00 | 32 | 998.7 |
| 20260504192304 | 18 | 324 | 16.1 | 38.6 | 0.00 | 0.00 | 0.00 | 32 | 998.7 |
| 20260504191803 | 18 | 302 | 12.9 | 32.2 | 0.00 | 0.00 | 0.00 | 32 | 998.5 |
| 20260504191302 | 17 | 249 | 16.1 | 32.2 | 0.00 | 0.00 | 0.00 | 32 | 998.3 |
| 20260504190802 | 17 | 284 | 19.3 | 33.8 | 0.00 | 0.00 | 0.00 | 32 | 998.4 |
| 20260504190303 | 17 | 320 | 16.1 | 32.2 | 0.00 | 0.00 | 0.00 | 32 | 998.2 |
| 20260504185803 | 18 | 279 | 19.3 | 35.4 | 0.00 | 0.00 | 0.00 | 33 | 998.2 |
| 20260504185304 | 18 | 265 | 16.1 | 38.6 | 0.00 | 0.00 | 0.00 | 33 | 998.1 |
| 20260504184803 | 17 | 283 | 14.5 | 37.0 | 0.00 | 0.00 | 0.00 | 33 | 998.0 |
| 20260504184303 | 17 | 275 | 14.5 | 32.2 | 0.00 | 0.00 | 0.00 | 33 | 998.0 |
| 20260504183803 | 17 | 312 | 20.9 | 37.0 | 0.00 | 0.00 | 0.00 | 33 | 998.1 |
| 20260504182803 | 17 | 359 | 17.7 | 33.8 | 0.00 | 0.00 | 0.00 | 33 | 998.0 |
| 20260504182304 | 17 | 351 | 16.1 | 29.0 | 0.00 | 0.00 | 0.00 | 33 | 998.0 |
| 20260504181802 | 17 | 0 | 16.1 | 45.1 | 0.00 | 0.00 | 0.00 | 33 | 997.9 |
| 20260504181303 | 18 | 311 | 16.1 | 38.6 | 0.00 | 0.00 | 0.00 | 33 | 997.9 |
| 20260504180803 | 18 | 274 | 12.9 | 40.2 | 0.00 | 0.00 | 0.00 | 33 | 997.7 |
| 20260504180302 | 17 | 296 | 11.3 | 32.2 | 0.00 | 0.00 | 0.00 | 33 | 997.6 |
| 20260504175803 | 17 | 319 | 11.3 | 22.5 | 0.00 | 0.00 | 0.00 | 36 | 997.7 |
| 20260504175304 | 17 | 275 | 11.3 | 27.4 | 0.00 | 0.00 | 0.00 | 36 | 997.6 |
| 20260504174802 | 17 | 310 | 16.1 | 32.2 | 0.00 | 0.00 | 0.00 | 36 | 997.6 |
| 20260504174303 | 17 | 290 | 9.7 | 20.9 | 0.00 | 0.00 | 0.00 | 36 | 997.5 |
| 20260504173803 | 17 | 317 | 14.5 | 27.4 | 0.00 | 0.00 | 0.00 | 36 | 997.5 |
| 20260504173303 | 17 | 314 | 14.5 | 32.2 | 0.00 | 0.00 | 0.00 | 36 | 997.5 |
| 20260504172802 | 17 | 0 | 9.7 | 22.5 | 0.00 | 0.00 | 0.00 | 36 | 997.5 |
| 20260504171803 | 17 | 352 | 16.1 | 27.4 | 0.00 | 0.00 | 0.00 | 36 | 997.5 |
| 20260504171303 | 17 | 322 | 14.5 | 37.0 | 0.00 | 0.00 | 0.00 | 36 | 997.5 |
| 20260504170803 | 17 | 302 | 11.3 | 25.7 | 0.00 | 0.00 | 0.00 | 36 | 997.6 |
| 20260504170303 | 17 | 304 | 14.5 | 25.7 | 0.00 | 0.00 | 0.00 | 36 | 997.7 |
| 20260504160303 | 17 | 302 | 20.9 | 41.8 | 0.00 | 0.00 | 0.00 | 45 | 997.4 |
| 20260504150802 | 17 | 0 | 12.9 | 25.7 | 0.00 | 0.00 | 0.00 | 46 | 996.9 |
| 20260504150302 | 17 | 0 | 12.9 | 25.7 | 0.00 | 0.00 | 0.00 | 46 | 996.9 |
| 20260504141303 | 17 | 0 | 11.3 | 32.2 | 0.00 | 0.00 | 0.00 | 42 | 996.6 |
| 20260504140802 | 17 | 326 | 14.5 | 37.0 | 0.00 | 0.00 | 0.00 | 42 | 996.6 |
| 20260504140302 | 17 | 315 | 14.5 | 24.1 | 0.00 | 0.00 | 0.00 | 42 | 996.6 |
| 20260504130802 | 16 | 0 | 8.0 | 20.9 | 0.00 | 0.00 | 0.00 | 49 | 996.5 |
| 20260504130302 | 15 | 0 | 8.0 | 22.5 | 0.00 | 0.00 | 0.00 | 49 | 996.6 |
| 20260504120302 | 13 | 0 | 9.7 | 24.1 | 0.00 | 0.00 | 0.00 | 52 | 995.9 |
| 20260504110303 | 11 | 0 | 4.8 | 12.9 | 0.00 | 0.00 | 0.00 | 56 | 996.2 |
| 20260504100302 | 10 | 0 | 8.0 | 14.5 | 0.00 | 0.00 | 0.00 | 55 | 996.9 |
| 20260504081802 | 8 | 0 | 1.6 | 8.0 | 0.00 | 0.00 | 0.00 | 49 | 998.5 |
| 20260504081303 | 8 | 0 | 0.0 | 4.8 | 0.00 | 0.00 | 0.00 | 49 | 998.5 |
| 20260504080803 | 8 | 0 | 3.2 | 12.9 | 0.00 | 0.00 | 0.00 | 49 | 998.6 |
| 20260504080303 | 8 | 0 | 0.0 | 4.8 | 0.00 | 0.00 | 0.00 | 49 | 998.7 |
| 20260504070303 | 5 | 0 | 0.0 | 1.6 | 0.00 | 0.00 | 0.00 | 45 | 999.8 |
| 20260504050303 | 6 | 0 | 0.0 | 0.0 | 0.00 | 0.00 | 0.00 | 53 | 1001.8 |
| 20260504045803 | 6 | 0 | 0.0 | 0.0 | 0.00 | 0.00 | 0.00 | 47 | 1001.9 |
| 20260504044803 | 6 | 0 | 0.0 | 0.0 | 0.00 | 0.00 | 0.00 | 47 | 1002.0 |
| 20260504044303 | 7 | 0 | 0.0 | 0.0 | 0.00 | 0.00 | 0.00 | 47 | 1002.1 |
| 20260504043803 | 7 | 0 | 0.0 | 0.0 | 0.00 | 0.00 | 0.00 | 47 | 1002.1 |
| 20260504042803 | 7 | 0 | 0.0 | 0.0 | 0.00 | 0.00 | 0.00 | 47 | 1002.3 |
| 20260504042304 | 7 | 0 | 0.0 | 0.0 | 0.00 | 0.00 | 0.00 | 47 | 1002.3 |
| 20260504041803 | 7 | 0 | 0.0 | 0.0 | 0.00 | 0.00 | 0.00 | 47 | 1002.3 |
| 20260504041303 | 7 | 0 | 0.0 | 0.0 | 0.00 | 0.00 | 0.00 | 47 | 1002.4 |
| 20260504040803 | 7 | 0 | 0.0 | 0.0 | 0.00 | 0.00 | 0.00 | 47 | 1002.5 |
| 20260504035803 | 7 | 0 | 0.0 | 0.0 | 0.00 | 0.00 | 0.00 | 41 | 1002.6 |
| 20260504035304 | 7 | 0 | 0.0 | 0.0 | 0.00 | 0.00 | 0.00 | 41 | 1002.7 |
| 20260504034803 | 8 | 0 | 0.0 | 0.0 | 0.00 | 0.00 | 0.00 | 41 | 1002.8 |
| 20260504034303 | 8 | 0 | 0.0 | 0.0 | 0.00 | 0.00 | 0.00 | 41 | 1002.8 |
| 20260504033803 | 8 | 0 | 0.0 | 0.0 | 0.00 | 0.00 | 0.00 | 41 | 1002.9 |
| 20260504033302 | 8 | 0 | 0.0 | 0.0 | 0.00 | 0.00 | 0.00 | 41 | 1002.9 |
| 20260504032803 | 8 | 0 | 0.0 | 0.0 | 0.00 | 0.00 | 0.00 | 41 | 1003.0 |
| 20260504032304 | 8 | 0 | 0.0 | 0.0 | 0.00 | 0.00 | 0.00 | 41 | 1003.1 |
| 20260504031802 | 8 | 0 | 0.0 | 0.0 | 0.00 | 0.00 | 0.00 | 41 | 1003.2 |
| 20260504031303 | 9 | 0 | 0.0 | 0.0 | 0.00 | 0.00 | 0.00 | 41 | 1003.3 |
| 20260504030803 | 9 | 0 | 0.0 | 0.0 | 0.00 | 0.00 | 0.00 | 41 | 1003.3 |
| 20260504030303 | 9 | 0 | 0.0 | 0.0 | 0.00 | 0.00 | 0.00 | 41 | 1003.4 |
| 20260504025803 | 9 | 0 | 0.0 | 0.0 | 0.00 | 0.00 | 0.00 | 40 | 1003.4 |
| 20260504025304 | 10 | 0 | 0.0 | 0.0 | 0.00 | 0.00 | 0.00 | 40 | 1003.4 |
| 20260504024803 | 10 | 0 | 0.0 | 0.0 | 0.00 | 0.00 | 0.00 | 40 | 1003.3 |
| 20260504024303 | 10 | 0 | 0.0 | 0.0 | 0.00 | 0.00 | 0.00 | 40 | 1003.3 |
| 20260504023802 | 10 | 0 | 0.0 | 0.0 | 0.00 | 0.00 | 0.00 | 40 | 1003.3 |
| 20260504023303 | 11 | 0 | 0.0 | 0.0 | 0.00 | 0.00 | 0.00 | 40 | 1003.3 |